Hourly Weather Kozlowiec

Today, 20 October, Tuesday

Time Temperature Precipitation Wind Pressure Humidity
00:00 +5°C° 0 mm 2 mps 753 mmHg 90%
01:00 +5°C° 0 mm 2 mps 753 mmHg 94%
02:00 +4°C° 0 mm 2 mps 753 mmHg 94%
03:00 +4°C° 0 mm 2 mps 753 mmHg 93%
04:00 +4°C° 0 mm 2 mps 753 mmHg 93%
05:00 +4°C° 0 mm 2 mps 753 mmHg 92%
06:00 +4°C° 0 mm 2 mps 753 mmHg 91%
07:00 +4°C° 0 mm 2 mps 753 mmHg 90%
08:00 +6°C° 0 mm 2 mps 753 mmHg 85%
09:00 +7°C° 0 mm 3 mps 753 mmHg 80%
10:00 +8°C° 0 mm 3 mps 752 mmHg 75%
11:00 +8°C° 0 mm 4 mps 752 mmHg 72%
12:00 +10°C° 0 mm 4 mps 752 mmHg 68%
13:00 +9°C° 0 mm 5 mps 752 mmHg 65%
14:00 +9°C° 0 mm 5 mps 751 mmHg 66%
15:00 +10°C° 0 mm 4 mps 750 mmHg 67%
16:00 +10°C° 0 mm 4 mps 750 mmHg 68%
17:00 +8°C° 0 mm 4 mps 749 mmHg 71%
18:00 +8°C° 0 mm 4 mps 748 mmHg 73%
19:00 +8°C° 0 mm 4 mps 748 mmHg 76%
20:00 +8°C° 0 mm 4 mps 747 mmHg 77%
21:00 +8°C° 0 mm 4 mps 747 mmHg 77%
22:00 +8°C° 0 mm 4 mps 747 mmHg 78%
23:00 +8°C° 0.2 mm 4 mps 747 mmHg 80%

Tomorrow, 21 October, Wednesday

Time Temperature Precipitation Wind Pressure Humidity
00:00 +8°C° 0.2 mm 4 mps 746 mmHg 83%
01:00 +8°C° 0.2 mm 4 mps 746 mmHg 86%
02:00 +8°C° 0.4 mm 4 mps 746 mmHg 89%
03:00 +8°C° 0.4 mm 4 mps 746 mmHg 91%
04:00 +8°C° 0.4 mm 4 mps 746 mmHg 94%
05:00 +9°C° 0.1 mm 3 mps 746 mmHg 94%
06:00 +9°C° 0.1 mm 3 mps 746 mmHg 94%
07:00 +10°C° 0.1 mm 3 mps 746 mmHg 94%
08:00 +10°C° 0 mm 3 mps 746 mmHg 91%
09:00 +11°C° 0 mm 3 mps 746 mmHg 89%
10:00 +11°C° 0 mm 3 mps 746 mmHg 86%
11:00 +12°C° 0 mm 3 mps 746 mmHg 85%
12:00 +12°C° 0 mm 3 mps 746 mmHg 84%
13:00 +12°C° 0 mm 3 mps 746 mmHg 84%
14:00 +11°C° 0 mm 3 mps 746 mmHg 83%
15:00 +11°C° 0 mm 3 mps 746 mmHg 83%
16:00 +11°C° 0 mm 3 mps 745 mmHg 82%
17:00 +11°C° 0 mm 4 mps 745 mmHg 81%
18:00 +11°C° 0 mm 4 mps 745 mmHg 79%
19:00 +10°C° 0 mm 4 mps 745 mmHg 77%
20:00 +11°C° 0 mm 4 mps 745 mmHg 77%
21:00 +10°C° 0 mm 5 mps 744 mmHg 77%
22:00 +10°C° 0 mm 5 mps 744 mmHg 77%
23:00 +10°C° 0 mm 5 mps 744 mmHg 77%

Day after tomorrow, 22 October, Thursday

Time Temperature Precipitation Wind Pressure Humidity
00:00 +10°C° 0 mm 5 mps 745 mmHg 76%
01:00 +11°C° 0 mm 6 mps 745 mmHg 76%
02:00 +11°C° 0 mm 6 mps 745 mmHg 76%
03:00 +12°C° 0 mm 5 mps 745 mmHg 76%
04:00 +12°C° 0 mm 5 mps 745 mmHg 77%
05:00 +12°C° 0 mm 5 mps 745 mmHg 78%
06:00 +12°C° 0 mm 5 mps 745 mmHg 80%
07:00 +10°C° 0 mm 5 mps 745 mmHg 82%
08:00 +13°C° 0 mm 5 mps 745 mmHg 79%
09:00 +14°C° 0 mm 5 mps 746 mmHg 75%
10:00 +15°C° 0 mm 5 mps 746 mmHg 71%
11:00 +16°C° 0 mm 5 mps 746 mmHg 69%
12:00 +17°C° 0 mm 5 mps 746 mmHg 67%
13:00 +17°C° 0 mm 5 mps 746 mmHg 65%
14:00 +17°C° 0 mm 5 mps 746 mmHg 68%
15:00 +17°C° 0 mm 4 mps 746 mmHg 71%
16:00 +17°C° 0 mm 3 mps 746 mmHg 74%
17:00 +15°C° 0 mm 4 mps 746 mmHg 75%
18:00 +15°C° 0 mm 4 mps 746 mmHg 75%
19:00 +15°C° 0 mm 5 mps 746 mmHg 76%
20:00 +15°C° 0 mm 5 mps 745 mmHg 77%
21:00 +14°C° 0 mm 5 mps 745 mmHg 77%
22:00 +14°C° 0 mm 5 mps 745 mmHg 78%
23:00 +14°C° 0 mm 5 mps 745 mmHg 77%

23 October, Friday

Time Temperature Precipitation Wind Pressure Humidity
00:00 +14°C° 0 mm 5 mps 744 mmHg 76%
01:00 +14°C° 0 mm 5 mps 744 mmHg 75%
02:00 +14°C° 0.4 mm 5 mps 744 mmHg 80%
03:00 +13°C° 0.4 mm 5 mps 744 mmHg 84%
04:00 +13°C° 0.4 mm 5 mps 743 mmHg 89%
05:00 +13°C° 0.6 mm 5 mps 743 mmHg 90%
06:00 +13°C° 0.6 mm 5 mps 743 mmHg 90%
07:00 +13°C° 0.6 mm 5 mps 743 mmHg 91%
08:00 +14°C° 0.1 mm 5 mps 743 mmHg 85%
09:00 +15°C° 0.1 mm 6 mps 743 mmHg 78%
10:00 +16°C° 0.1 mm 6 mps 743 mmHg 72%
11:00 +16°C° 0 mm 6 mps 743 mmHg 68%
12:00 +16°C° 0 mm 6 mps 743 mmHg 65%
13:00 +16°C° 0 mm 7 mps 743 mmHg 61%
14:00 +15°C° 0.1 mm 6 mps 743 mmHg 65%
15:00 +15°C° 0.1 mm 5 mps 743 mmHg 68%
16:00 +14°C° 0.1 mm 5 mps 743 mmHg 72%
17:00 +13°C° 0.1 mm 4 mps 743 mmHg 76%
18:00 +12°C° 0.1 mm 4 mps 743 mmHg 80%
19:00 +12°C° 0.1 mm 3 mps 744 mmHg 84%
20:00 +11°C° 0.1 mm 3 mps 744 mmHg 85%
21:00 +11°C° 0.1 mm 3 mps 744 mmHg 87%
22:00 +11°C° 0.1 mm 3 mps 744 mmHg 89%
23:00 +11°C° 0.1 mm 3 mps 744 mmHg 89%

24 October, Saturday

Time Temperature Precipitation Wind Pressure Humidity
00:00 +10°C° 0.1 mm 4 mps 744 mmHg 89%
01:00 +10°C° 0.1 mm 4 mps 744 mmHg 90%
02:00 +10°C° 0.2 mm 4 mps 744 mmHg 87%
03:00 +9°C° 0.2 mm 5 mps 744 mmHg 85%
04:00 +9°C° 0.2 mm 5 mps 744 mmHg 83%
05:00 +8°C° 0.2 mm 5 mps 744 mmHg 83%
06:00 +8°C° 0.2 mm 5 mps 744 mmHg 83%
07:00 +7°C° 0.2 mm 5 mps 744 mmHg 84%
08:00 +7°C° 0.4 mm 5 mps 744 mmHg 84%
09:00 +8°C° 0.4 mm 5 mps 744 mmHg 84%
10:00 +8°C° 0.4 mm 6 mps 744 mmHg 85%
11:00 +9°C° 0.2 mm 6 mps 744 mmHg 77%
12:00 +9°C° 0.2 mm 7 mps 745 mmHg 70%
13:00 +10°C° 0.2 mm 8 mps 745 mmHg 63%
14:00 +10°C° 0 mm 7 mps 745 mmHg 65%
15:00 +9°C° 0 mm 7 mps 746 mmHg 67%
16:00 +8°C° 0 mm 6 mps 746 mmHg 69%
17:00 +8°C° 0 mm 6 mps 747 mmHg 72%
18:00 +7°C° 0 mm 5 mps 747 mmHg 74%
19:00 +7°C° 0 mm 5 mps 748 mmHg 77%
20:00 +7°C° 0 mm 4 mps 748 mmHg 80%
21:00 +6°C° 0 mm 4 mps 749 mmHg 82%
22:00 +6°C° 0 mm 4 mps 749 mmHg 84%
23:00 +6°C° 0 mm 4 mps 749 mmHg 87%

25 October, Sunday

Time Temperature Precipitation Wind Pressure Humidity
00:00 +6°C° 0 mm 4 mps 750 mmHg 89%
01:00 +7°C° 0 mm 3 mps 750 mmHg 92%
02:00 +5°C° 0 mm 3 mps 750 mmHg 93%
03:00 +5°C° 0 mm 3 mps 750 mmHg 94%
04:00 +6°C° 0 mm 2 mps 751 mmHg 96%
05:00 +6°C° 0 mm 2 mps 751 mmHg 96%
06:00 +5°C° 0 mm 2 mps 751 mmHg 96%
07:00 +5°C° 0 mm 2 mps 751 mmHg 96%
08:00 +6°C° 0 mm 2 mps 751 mmHg 89%
09:00 +8°C° 0 mm 2 mps 751 mmHg 83%
10:00 +9°C° 0 mm 2 mps 752 mmHg 76%
11:00 +10°C° 0 mm 2 mps 752 mmHg 71%
12:00 +12°C° 0 mm 2 mps 752 mmHg 66%
13:00 +11°C° 0 mm 3 mps 751 mmHg 61%
14:00 +12°C° 0 mm 2 mps 751 mmHg 64%
15:00 +10°C° 0 mm 2 mps 751 mmHg 67%
16:00 +9°C° 0 mm 2 mps 750 mmHg 69%
17:00 +9°C° 0 mm 2 mps 750 mmHg 72%
18:00 +8°C° 0 mm 2 mps 750 mmHg 75%
19:00 +7°C° 0 mm 2 mps 750 mmHg 78%
20:00 +7°C° 0 mm 3 mps 750 mmHg 80%
21:00 +7°C° 0 mm 3 mps 750 mmHg 81%
22:00 +7°C° 0 mm 3 mps 750 mmHg 82%
23:00 +5°C° 0 mm 3 mps 750 mmHg 82%

26 October, Monday

Time Temperature Precipitation Wind Pressure Humidity
00:00 +5°C° 0 mm 3 mps 750 mmHg 83%
01:00 +5°C° 0 mm 3 mps 749 mmHg 83%
02:00 +5°C° 0 mm 3 mps 749 mmHg 83%
03:00 +5°C° 0 mm 3 mps 749 mmHg 84%
04:00 +4°C° 0 mm 4 mps 748 mmHg 84%
05:00 +4°C° 0 mm 4 mps 748 mmHg 84%
06:00 +4°C° 0 mm 4 mps 748 mmHg 85%
07:00 +4°C° 0 mm 4 mps 747 mmHg 85%
08:00 +5°C° 0 mm 4 mps 747 mmHg 79%
09:00 +7°C° 0 mm 5 mps 747 mmHg 73%
10:00 +8°C° 0 mm 5 mps 746 mmHg 67%
11:00 +9°C° 0 mm 5 mps 746 mmHg 63%
12:00 +10°C° 0 mm 5 mps 745 mmHg 59%
13:00 +10°C° 0 mm 5 mps 745 mmHg 54%
14:00 +10°C° 0 mm 5 mps 745 mmHg 59%
15:00 +9°C° 0 mm 5 mps 744 mmHg 64%
16:00 +10°C° 0 mm 4 mps 744 mmHg 69%
17:00 +8°C° 0 mm 4 mps 744 mmHg 71%
18:00 +8°C° 0 mm 4 mps 744 mmHg 74%
19:00 +8°C° 0 mm 4 mps 743 mmHg 77%
20:00 +8°C° 0 mm 4 mps 743 mmHg 77%
21:00 +8°C° 0 mm 4 mps 743 mmHg 78%
22:00 +9°C° 0 mm 3 mps 743 mmHg 79%
23:00 +9°C° 0 mm 3 mps 743 mmHg 82%
Show more